This demonstration page uses our WeatherBlox Daily Observations layout. Learn more.

Left ArrowRight Arrow

41.86663, -103.66717

Hourly Observations for November 7, 2019

Temp ( °F °C ) Dew Point ( °F °C ) Humidity (%) Winds ( mph kmh ) Pressure ( in mb ) Visibility ( mi km ) Precip ( " mm )
12:07 am 00:07 Cloudy 23 -5 21 -6.1 92 92 SE 5 7 30.68 1039 10 16 0.00 0.00
12:26 am 00:26 Cloudy 25 -4 21 -6 86 86 ESE 3 6 30.65 1038 10 16 0.00 0.00
12:53 am 00:53 Cloudy 24 -4.4 21 -6.1 88 88 ESE 6 9 30.57 1035 10 16 0.00 0.00
1:53 am 01:53 Cloudy 25 -3.9 22 -5.6 88 88 E 5 7 30.55 1035 10 16 0.00 0.00
2:53 am 02:53 Cloudy 24 -4.4 22 -5.6 91 91 SSE 3 6 30.56 1035 10 16 0.00 0.00
3:53 am 03:53 Cloudy 24 -4.4 22 -5.6 91 91 Calm 30.55 1035 10 16 0.00 0.00
4:41 am 04:41 Cloudy 25 -4 23 -5 93 93 SSW 3 6 30.61 1037 8 13 0.00 0.00
4:53 am 04:53 Cloudy 24 -4.4 23 -5 96 96 S 5 7 30.55 1035 7 11 0.00 0.00
5:46 am 05:46 Cloudy with Mist and Fog 25 -4 23 -5 93 93 WSW 5 7 30.61 1037 2 3 0.00 0.00
5:53 am 05:53 Cloudy with Mist and Fog 24 -4.4 23 -5 96 96 Calm 30.55 1035 1 2 0.00 0.00
6:53 am 06:53 Cloudy with Mist and Fog 25 -3.9 24 -4.4 96 96 W 6 9 30.55 1035 1 2 0.00 0.00
7:11 am 07:11 Cloudy with Mist and Fog 25 -3.9 24 -4.4 96 96 WSW 7 11 30.60 1036 3 5 0.00 0.00
7:21 am 07:21 Cloudy with Mist and Fog 25 -3.9 24 -4.4 96 96 W 6 9 30.60 1036 3 4 0.00 0.00
7:29 am 07:29 Cloudy with Mist and Fog 25 -4 25 -4 100 100 W 7 11 30.60 1036 1 2 0.00 0.00
7:38 am 07:38 Cloudy with Mist and Fog 25 -4 25 -4 100 100 WNW 7 11 30.60 1036 1 1 0.00 0.00
7:50 am 07:50 Cloudy with Mist and Fog 25 -4 25 -4 100 100 W 6 9 30.61 1037 1 2 0.00 0.00
7:53 am 07:53 Cloudy with Mist and Fog 25 -3.9 25 -3.9 100 100 WNW 7 11 30.56 1035 2 2 0.00 0.00
8:36 am 08:36 Cloudy with Mist and Fog 26 -3.3 25 -3.9 96 96 W 6 9 30.60 1036 3 5 0.00 0.00
8:50 am 08:50 Cloudy with Mist and Fog 27 -3 27 -3 100 100 WNW 7 11 30.59 1036 2 3 0.00 0.00
8:53 am 08:53 Cloudy with Mist and Fog 26 -3.3 26 -3.3 100 100 W 3 6 30.55 1035 2 2 0.00 0.00
9:09 am 09:09 Cloudy with Mist and Fog 27 -2.8 26 -3.3 96 96 WNW 6 9 30.59 1036 2 3 0.00 0.00
9:32 am 09:32 Cloudy with Mist and Fog 27 -3 27 -3 100 100 W 5 7 30.59 1036 5 8 0.00 0.00
9:53 am 09:53 Cloudy 28 -2.2 27 -2.8 96 96 WNW 3 6 30.54 1034 10 16 0.00 0.00
10:37 am 10:37 Mostly Cloudy 30 -1.1 27 -2.8 88 88 VRB 3 6 30.55 1035 10 16 0.00 0.00
10:53 am 10:53 Mostly Cloudy 33 0.6 28 -2.2 82 82 VRB 5 7 30.52 1033 10 16 0.00 0.00
11:07 am 11:07 Partly Cloudy 34 1 27 -3 75 75 VRB 3 6 30.51 1033 10 16 0.00 0.00
11:53 am 11:53 Sunny 36 2.2 28 -2.2 73 73 VRB 3 6 30.47 1032 10 16 0.00 0.00
12:53 pm 12:53 Sunny 42 5.6 29 -1.7 60 60 Calm 30.42 1030 10 16 0.00 0.00
1:53 pm 13:53 Sunny 44 6.7 30 -1.1 58 58 Calm 30.38 1029 10 16 0.00 0.00
2:53 pm 14:53 Sunny 45 7.2 31 -0.6 58 58 ESE 7 11 30.37 1028 10 16 0.00 0.00
3:53 pm 15:53 Sunny 44 6.7 31 -0.6 60 60 E 7 11 30.37 1029 10 16 0.00 0.00
4:53 pm 16:53 Clear 35 1.7 27 -2.8 72 72 E 6 9 30.38 1029 10 16 0.00 0.00
5:53 pm 17:53 Clear 32 0 25 -3.9 75 75 E 7 11 30.40 1029 10 16 0.00 0.00
6:53 pm 18:53 Clear 28 -2.2 22 -5.6 78 78 E 7 11 30.39 1029 10 16 0.00 0.00
7:53 pm 19:53 Clear 28 -2.2 21 -6.1 75 75 E 6 9 30.38 1029 10 16 0.00 0.00
8:53 pm 20:53 Clear 30 -1.1 23 -5 75 75 E 7 11 30.37 1029 10 16 0.00 0.00
9:53 pm 21:53 Clear 28 -2.2 23 -5 81 81 ENE 7 11 30.35 1028 10 16 0.00 0.00
10:53 pm 22:53 Clear 27 -2.8 24 -4.4 89 89 E 8 13 30.32 1027 10 16 0.00 0.00
11:53 pm 23:53 Clear 28 -2.2 24 -4.4 85 85 Calm 30.30 1026 10 16 0.00 0.00

Powered by AerisWeather